[[{"header":{"parameterUnit":"m.s-1","parameterCategory":1,"la1":30.2992,"la2":30.254,"lo1":-89.0895,"lo2":-89.0443,"dy":0.0025,"dx":0.0025,"nx":19,"ny":19,"refTime":"2026-04-22T09:00:00:Z","depth":0,"parameterNumber":2,"parameterNumberName":"U-component_of_WINDS"},"data":[0,0,0,-2.8208,-2.8209,-2.8289,-2.8289,-2.8402,-2.8403,0,0,0,0,0,0,0,0,0,0,0,-2.8191,-2.8192,-2.8207,-2.821,-2.8289,-2.8289,-2.8402,-2.8403,0,0,0,0,0,0,0,0,0,0,0,-2.8191,-2.8192,-2.8193,-2.821,-2.8289,-2.8289,-2.8401,-2.8337,0,0,0,0,0,0,0,0,0,0,-2.8258,-2.825,-2.8192,-2.8193,-2.8211,-2.8289,-2.8289,-2.8334,-2.8341,-2.8371,0,-2.8399,0,-2.8403,-2.8411,-2.8412,0,0,0,-2.8204,-2.8244,-2.8259,-2.8194,-2.8211,-2.8289,-2.8252,-2.8338,-2.8346,-2.838,-2.8401,-2.8405,-2.8405,-2.8412,-2.8413,-2.8602,-2.8603,0,0,-2.82,-2.8209,-2.8254,-2.8265,-2.8255,-2.8249,-2.8254,-2.8343,-2.8366,-2.8401,-2.8407,-2.8407,-2.8413,-2.8414,-2.8601,-2.8602,0,0,0,-2.8191,-2.8207,-2.8219,-2.8261,-2.8274,-2.8252,-2.8257,-2.8362,-2.8365,-2.8408,-2.8408,-2.8414,-2.8415,-2.86,-2.8602,-2.8667,0,0,0,-2.8188,-2.8201,-2.8217,-2.8224,-2.8273,-2.8319,-2.8274,-2.8359,-2.8368,-2.8408,-2.8414,-2.8416,-2.8599,-2.8601,-2.8663,-2.8696,0,0,0,-2.8184,-2.8201,-2.8215,-2.8225,-2.8259,-2.8318,-2.8326,-2.8361,-2.8369,-2.8412,-2.8417,-2.8598,-2.86,-2.8659,-2.8689,-2.8747,0,0,0,-2.8182,-2.8273,-2.8216,-2.8318,-2.8259,-2.8358,-2.8325,-2.8399,-2.8444,-2.8414,-2.8599,-2.8601,-2.8657,-2.8685,-2.8743,-2.8797,-2.8821,0,0,-2.8302,-2.8287,-2.8346,-2.8298,-2.841,-2.8345,-2.8467,-2.8498,-2.8494,-2.8566,-2.857,-2.8664,-2.8689,-2.8746,-2.8954,-2.8973,0,0,0,-2.8387,-2.843,-2.8457,-2.8501,-2.8528,-2.8553,-2.8565,-2.8577,-2.8638,-2.8533,-2.8702,-2.8716,-2.8749,-2.8774,-2.8791,-2.8818,-2.8614,-2.8614,-2.8613,-2.857,-2.8559,-2.8655,-2.8654,-2.8697,-2.8709,-2.8742,-2.8759,-2.8736,-2.8776,-2.8797,-2.8924,-2.8954,-2.8966,-2.8995,-2.8826,-2.8826,-2.8826,-2.8827,-2.8743,-2.88,-2.8768,-2.8849,-2.8837,-2.8905,-2.892,-2.8901,-2.8961,-2.8908,-2.8937,-2.8877,-2.8987,-2.9012,-2.8831,-2.8831,-2.883,-2.883,-2.8829,-2.886,-2.8885,-2.8899,-2.896,-2.9008,-2.9004,-2.9064,-2.9051,-2.9039,-2.9068,-2.9088,-2.9087,-2.9082,-2.9079,-2.9079,-2.908,-2.908,-2.9081,-2.9081,-2.8975,-2.8988,-2.904,-2.9076,-2.9102,-2.9135,-2.9148,-2.9173,-2.9197,-2.9182,-2.9182,-2.9154,-2.9001,-2.8962,-2.9088,-2.9086,-2.9085,-2.9085,-2.9084,-2.9151,-2.9109,-2.919,-2.9216,-2.9257,-2.9305,-2.9289,-2.934,-2.9359,-2.9389,-2.9355,-2.9245,-2.9228,-2.9215,-2.9182,-2.9358,-2.9358,-2.9358,-2.9358,-2.9248,-2.9239,-2.9318,-2.936,-2.94,-2.9393,-2.9483,-2.9495,-2.9499,-2.951,-2.9483,-2.944,-2.9427,-2.9418,-2.9401,-2.937,-2.9589,-2.9589,-2.959,-2.9355,-2.9349,-2.9428,-2.9433,-2.9464,-2.9491,-2.9575,-2.9624,-2.9621,-2.9599,-2.9518,-2.9508,-2.9437,-2.9415,-2.9388,-2.9362,-2.9305,0,0]},{"header":{"parameterUnit":"m.s-1","parameterCategory":1,"la1":30.2992,"la2":30.254,"lo1":-89.0895,"lo2":-89.0443,"dy":0.0025,"dx":0.0025,"nx":19,"ny":19,"refTime":"2026-04-22T09:00:00:Z","depth":0,"parameterNumber":3,"parameterNumberName":"V-component_of_WINDS"},"data":[0,0,0,3.2137,3.2137,3.2131,3.213,3.2143,3.2143,0,0,0,0,0,0,0,0,0,0,0,3.2153,3.2153,3.2137,3.2137,3.2131,3.213,3.2142,3.2143,0,0,0,0,0,0,0,0,0,0,0,3.2152,3.2153,3.2154,3.2137,3.2131,3.213,3.2142,3.214,0,0,0,0,0,0,0,0,0,0,3.2143,3.2171,3.2153,3.2154,3.2138,3.2131,3.213,3.2139,3.214,3.2155,0,3.2172,0,3.2158,3.2145,3.2145,0,0,0,3.2127,3.217,3.2156,3.2154,3.2138,3.2131,3.2131,3.214,3.214,3.2156,3.2172,3.2172,3.2158,3.2145,3.2145,3.2264,3.2265,0,0,3.2128,3.2159,3.2156,3.2157,3.2161,3.2131,3.2131,3.214,3.2159,3.2172,3.2172,3.2158,3.2145,3.2146,3.2263,3.2264,0,0,0,3.2136,3.216,3.2145,3.2158,3.2155,3.2131,3.2131,3.2159,3.2151,3.2172,3.2158,3.2146,3.2146,3.2262,3.2263,3.2343,0,0,0,3.2135,3.2164,3.2145,3.2164,3.2155,3.2157,3.215,3.2151,3.2151,3.2158,3.2146,3.2146,3.2261,3.2263,3.2338,3.2375,0,0,0,3.2149,3.2165,3.2169,3.2166,3.2164,3.2156,3.2149,3.215,3.2143,3.2145,3.2146,3.226,3.2262,3.2334,3.2368,3.2413,0,0,0,3.2172,3.2241,3.2171,3.2243,3.2165,3.2206,3.2148,3.2178,3.2189,3.2146,3.2261,3.2263,3.2333,3.2363,3.2408,3.2455,3.2477,0,0,3.2276,3.2255,3.2295,3.2232,3.2294,3.2205,3.2278,3.2259,3.2231,3.2254,3.2257,3.234,3.2367,3.2412,3.2599,3.2617,0,0,0,3.2338,3.2367,3.2377,3.2389,3.2377,3.2368,3.2334,3.2327,3.2345,3.225,3.2368,3.2384,3.2409,3.2429,3.2445,3.2463,3.2275,3.2275,3.2274,3.253,3.249,3.2553,3.2512,3.2525,3.2489,3.2494,3.2478,3.2435,3.2464,3.247,3.2588,3.2614,3.2625,3.2644,3.2493,3.2494,3.2494,3.2494,3.2678,3.2711,3.2652,3.269,3.2648,3.268,3.2648,3.2616,3.2639,3.2581,3.2601,3.2539,3.2646,3.2661,3.25,3.2499,3.2498,3.2497,3.2497,3.2797,3.2805,3.2796,3.2807,3.2821,3.2777,3.2801,3.2762,3.2725,3.2745,3.2745,3.2744,3.2735,3.2749,3.2749,3.2749,3.275,3.275,3.275,3.2923,3.2909,3.2934,3.2926,3.2927,3.2924,3.2889,3.2889,3.2879,3.2848,3.2848,3.28,3.2665,3.2631,3.2756,3.2755,3.2755,3.2754,3.2754,3.3083,3.304,3.3079,3.3081,3.3066,3.3081,3.3031,3.3034,3.3029,3.3041,3.299,3.2897,3.2872,3.2859,3.283,3.3,3.3,3.3,3.3,3.3181,3.3165,3.3195,3.3199,3.3199,3.3158,3.3201,3.3173,3.3138,3.3132,3.3102,3.3061,3.305,3.3031,3.3015,3.2986,3.3192,3.3192,3.3193,3.3276,3.3258,3.3302,3.3268,3.3253,3.3242,3.328,3.3287,3.3238,3.32,3.3125,3.3117,3.305,3.3031,3.2989,3.2965,3.2912,0,0]}]]